1286323232109,1.02138
1286323292109,1.01629
1286323352109,1.01298
1286323412109,1.01165
1286323472109,1.01733
1286323532109,1.01384
1286323592109,1.01279
1286323652109,1.01133
1286323712109,1.00706
1286323772109,1.01748
1286323832109,1.01410
1286323892109,1.00771
1286323952109,1.02318
1286324012109,1.01735
1286324072109,1.01717
1286324132109,1.01034
1286324192109,1.00891
1286324252109,1.00628
1286324312109,1.01475
1286324372109,1.00899
1286324432109,1.00786
1286324492109,1.01432
1286324552109,1.00034
1286324612109,1.01096
1286324672109,1.02075
1286324732109,1.01036
1286324792109,1.01780
1286324852109,1.00771
1286324912109,1.01102
1286324972109,1.00760
1286325032109,1.00619
1286325092109,1.01029
1286325152109,1.02091
1286325212109,1.00014
1286325272109,1.00711
1286325332109,1.01699
1286325392109,1.01689
1286325452109,1.00501
1286325512109,1.02155
1286325572109,1.00312
1286325632109,1.01362
1286325692109,1.01697
1286325752109,1.00347
1286325812109,1.00875
1286325872109,1.01688
1286325932109,1.01214
1286325992109,1.01243
1286326052109,1.00949
1286326112109,1.02819
1286326172109,1.00857
1286326232109,1.01993
1286326292109,1.01694
1286326352109,1.00546
1286326412109,1.01178
1286326472109,1.00512
1286326532109,1.00783
1286326592109,1.01638
1286326652109,1.01490
1286326712109,1.00858
1286326772109,1.00855
1286326832120,1.02782
1286326892120,1.00798
1286326952120,1.01782
1286327012120,1.00067
1286327072120,1.01510
1286327132120,1.01430
1286327192120,1.01734
1286327252120,1.00623
1286327312120,1.01088
1286327372120,1.00216
1286327432120,1.00407
1286327492120,1.00458
1286327552120,0.999963
1286327612120,1.00601
1286327672120,1.01213
1286327732120,1.00878
1286327792120,1.00631
1286327852120,1.00258
1286327912120,1.00236
1286327972120,1.00545
1286328032120,1.00291
1286328092120,1.00258
1286328152120,1.00274
1286328212120,1.00900
1286328272120,1.01429
1286328332120,1.00517
1286328392120,1.00689
1286328452120,1.01502
1286328512120,0.996197
1286328572120,1.01070
1286328632120,1.00668
1286328692120,0.999713
1286328752120,1.00868
1286328812120,1.00626
1286328872120,1.00297
1286328932120,1.00558
1286328992120,1.00170
1286329052120,0.993539
1286329112120,1.00686
1286329172120,1.01114
1286329232120,1.00988
1286329292120,0.996497
1286329352120,1.00870
1286329412120,1.00034
1286329472120,0.991218
1286329532120,1.00146
1286329592120,1.01037
1286329652120,1.00713
1286329712120,1.01082
1286329772120,1.01143
1286329832120,1.00724
1286329892120,1.00822
1286329952120,1.00920
1286330012120,1.00884
1286330072120,1.00028
1286330132120,1.01241
1286330192120,1.00642
1286330252120,1.00239
1286330312120,1.00436
1286330372120,0.999931
1286330432131,0.995987
1286330492131,0.998038
1286330552131,1.00957
1286330612131,1.00222
1286330672131,0.993893
1286330732131,0.993088
1286330792131,1.00209
1286330852131,1.03971
1286330912131,1.00339
1286330972131,0.995256
1286331032131,1.00362
1286331092131,0.993541
1286331152131,1.00894
1286331212131,0.994652
1286331272131,0.996149
1286331332131,0.999364
1286331392131,1.00333
1286331452131,0.998823
1286331512131,1.00055
1286331572131,0.989834
1286331632131,0.995483
1286331692131,1.00216
1286331752131,1.00285
1286331812131,0.994038
1286331872131,1.00217
1286331932131,1.00384
1286331992131,0.997611
1286332052131,1.00128
1286332112131,1.00534
1286332172131,1.00433
1286332232131,0.999044
1286332292131,0.997409
1286332352131,1.00568
1286332412131,1.00630
1286332472131,0.999875
1286332532131,1.00287
1286332592131,0.996641
1286332652131,0.996467
1286332712131,0.998510
1286332772131,0.997728
1286332832131,0.967223
1286332892131,0.991620
1286332952131,0.999636
1286333012131,1.00321
1286333072131,0.996071
1286333132131,1.00696
1286333192131,1.00220
1286333252131,1.00203
1286333312131,1.01058
1286333372131,1.00366
1286333432131,1.00111
1286333492131,1.00186
1286333552131,1.00434
1286333612131,1.00261
1286333672131,1.00205
1286333732131,1.00274
1286333792131,1.00433
1286333852131,0.986129
1286333912131,1.00569
1286333972131,0.995374
1286334032142,1.00507
1286334092142,0.993928
1286334152142,0.999981
1286334212142,0.997343
1286334272142,1.01086
1286334332142,0.989066
1286334392142,1.00620
1286334452142,1.00807
1286334512142,0.993843
1286334572142,0.997561
1286334632142,0.995137
1286334692142,0.994372
1286334752142,1.00261
1286334812142,1.00279
1286334872142,1.00028
1286334932142,0.994422
1286334992142,1.01896
1286335052142,1.00183
1286335112142,0.996785
1286335172142,1.04451
1286335232142,0.992259
1286335292142,0.996765
1286335352142,0.991294
1286335412142,0.997470
1286335472142,0.995319
1286335532142,0.999876
1286335592142,1.00392
1286335652142,1.00044
1286335712142,1.00875
1286335772142,1.00130
1286335832142,0.994352
1286335892142,1.01547
1286335952142,1.01129
1286336012142,1.00277
1286336072142,1.00093
1286336132142,0.990475
1286336192142,0.998948
1286336252142,1.00507
1286336312142,1.00512
1286336372142,0.997721
1286336432142,0.999730
1286336492142,0.997752
1286336552142,0.997469
1286336612142,0.994215
1286336672142,0.995890
1286336732142,1.00322
1286336792142,1.00628
1286336852142,0.993630
1286336912142,0.990509
1286336972142,1.00320
1286337032142,1.00634
1286337092142,0.995122
1286337152142,0.997357
1286337212142,1.00160
1286337272142,0.999605
1286337332142,1.01324
1286337392142,0.996878
1286337452142,0.998099
1286337512142,1.00505
1286337572142,0.997421
1286337632153,0.988423
1286337692153,0.996389
1286337752153,0.997253
1286337812153,0.993177
1286337872153,0.996011
1286337932153,1.00014
1286337992153,0.997511
1286338052153,0.984531
1286338112153,0.999973
1286338172153,1.00505
1286338232153,1.00871
1286338292153,0.996927
1286338352153,0.995411
1286338412153,1.00472
1286338472153,0.997841
1286338532153,0.996572
1286338592153,1.00330
1286338652153,0.989765
1286338712153,1.00590
1286338772153,0.995260
1286338832153,1.00253
1286338892153,0.992772
1286338952153,0.990690
1286339012153,1.00165
1286339072153,0.996933
1286339132153,0.995757
1286339192153,0.999972
1286339252153,0.990400
1286339312153,0.998319
1286339372153,1.07386
1286339432153,1.00436
1286339492153,1.00233
1286339552153,1.01114
1286339612153,1.00123
1286339672153,0.997137
1286339732153,1.00811
1286339792153,1.00201
1286339852153,1.00789
1286339912153,0.994798
1286339972153,1.00160
1286340032153,1.01313
1286340092153,0.999156
1286340152153,1.00237
1286340212153,1.00258
1286340272153,0.999162
1286340332153,0.998282
1286340392153,1.00567
1286340452153,0.996830
1286340512153,0.998782
1286340572153,0.989860
1286340632153,1.00589
1286340692153,1.00183
1286340752153,1.00882
1286340812153,1.00161
1286340872153,0.997127
1286340932153,0.996211
1286340992153,1.00278
1286341052153,1.00494
1286341112153,1.00006
1286341172153,0.997272
1286341232163,1.00365
1286341292163,1.00327
1286341352163,0.993948
1286341412163,1.00871
1286341472163,1.00350
1286341532163,1.00137
1286341592163,1.00089
1286341652163,1.00907
1286341712163,0.999728
1286341772163,1.01004
1286341832163,0.994862
1286341892163,0.998791
1286342492163,0.998373
1286342552163,0.979429
1286342612163,0.991669
1286342672163,0.999703
1286342732163,0.993208
1286342792163,1.00600
1286342852163,1.00738
1286342912163,1.00796
1286342972163,0.996930
1286343032163,1.00389
1286343092163,1.00963
1286343152163,1.00779
1286343212163,1.00618
1286343272163,1.01450
1286343332163,1.00719
1286343392163,1.00789
1286343452163,1.00809
1286343512163,1.01845
1286343572163,1.00846
1286343632163,1.00545
1286343692163,0.994755
1286343752163,0.999902
1286343812163,1.00414
1286343872163,1.01260
1286343932163,1.01259
1286343992163,1.00314
1286344052163,1.00595
1286344112163,1.00345
1286344172163,1.00442
1286344232163,1.00679
1286344292163,1.00499
1286344352163,1.00601
1286344412163,1.01463
1286344472163,0.999293
1286344532163,1.01016
1286344592163,1.01316
1286344652163,1.00122
1286344712163,1.01361
1286344772163,1.01451
1286344832174,1.00448
1286344892174,1.01325
1286356232206,1.03617
1286356292206,1.03114
1286356352206,1.02719
1286356412206,1.02712
1286356472206,1.02125
1286356532206,1.01996
1286356592206,1.02330
1286356652206,1.02607
1286356712206,1.02923
1286356772206,1.02436
1286356832206,1.02308
1286356892206,1.02936
1286356952206,1.02483
1286357012206,1.02216
1286357072206,1.02778
1286357132206,1.03513
1286357192206,1.03274
1286357252206,1.01172
1286357312206,1.02618
1286357372206,1.01425
1286357432206,1.02708
1286357492206,1.02013
1286357552206,1.02344
1286357612206,1.02128
1286357672206,1.02051
1286357732206,1.03490
1286357792206,1.02717
1286357852206,1.03748
1286357912206,1.01436
1286357972206,1.02152
1286358032206,1.02322
1286358092206,1.01742
1286358152206,1.02951
1286358212206,1.02222
1286358272206,1.01831
1286358332206,1.01882
1286358392206,1.02550
1286358452206,1.02590
1286358512206,1.02634
1286358572206,1.02673
1286358632206,1.02568
1286358692206,1.02604
1286358752206,1.01175
1286358812206,1.02463
1286358872206,1.02216
1286358932206,1.02798
1286358992206,1.03487
1286359052206,1.02241
1286359112206,1.02074
1286359172206,1.02398
1286359232217,1.02225
1286359292217,1.02164
1286359352217,1.02971
1286359412217,1.02486
1286359472217,1.02240
1286359532217,1.01803
1286359592217,1.01956
1286359652217,1.02788
1286359712217,1.02351
1286359772217,1.02017
1286359832217,1.02865
1286359892217,1.02742
1286359952217,1.02592
1286360012217,1.02201
1286360072217,1.02944
1286360132217,1.03060
1286360192217,1.01924
1286360252217,1.02082
1286360312217,1.02279
1286360372217,1.02121
1286360432217,1.02212
1286360492217,1.02049
1286360552217,1.02293
1286360612217,1.02495
1286360672217,1.01879
1286360732217,1.02491
1286360792217,1.03611
1286360852217,1.02272
1286360912217,1.03089
1286360972217,1.02493
1286361032217,1.01465
1286361092217,1.03544
1286361152217,1.02331
1286361212217,1.02694
1286361272217,1.02463
1286361332217,1.03160
1286361392217,1.02022
1286361452217,1.02727
1286361512217,1.01529
1286361572217,1.02801
1286361632217,1.01812
1286361692217,1.01854
1286361752217,1.02747
1286361812217,1.03786
1286361872217,1.04220
1286361932217,1.03018
1286361992217,1.02416
1286362052217,1.02669
1286362112217,1.01985
1286362172217,1.02721
1286362232217,1.02821
1286362292217,1.01612
1286362352217,1.01413
1286362412217,1.03119
1286362472217,1.02119
1286362532217,1.03564
1286362592217,1.02925
1286362652217,1.02666
1286362712217,1.03257
1286362772217,1.02925
1286362832229,1.02876
1286362892229,1.02708
1286362952229,1.02733
1286363012229,1.02352
1286363072229,1.02830
1286363132229,1.02647
1286363192229,1.01833
1286363252229,1.02869
1286363312229,1.02107
1286363372229,1.02185
1286363432229,1.01639
1286363492229,1.01626
1286363552229,1.03052
1286363612229,1.02606
1286363672229,1.02971
1286363732229,1.02886
1286363792229,1.02385
1286363852229,1.02707
1286363912229,1.03186
1286363972229,1.02737
1286364032229,1.02442
1286364092229,1.02676
1286364152229,1.02459
1286364212229,1.02739
1286364272229,1.02857
1286364332229,1.02783
1286364392229,1.02331
1286364452229,1.02068
1286364512229,1.02023
1286364572229,1.01548
1286364632229,1.02616
1286364692229,1.01909
1286364752229,1.03303
1286364812229,1.02444
1286364872229,1.02453
1286364932229,1.03186
1286364992229,1.02448
1286365052229,1.02553
1286365112229,1.02732
1286365172229,1.02554
1286365232229,1.02652
1286365292229,1.02984
1286365352229,1.02530
1286365412229,1.02811
1286365472229,1.03182
1286365532229,1.02274
1286365592229,1.01651
1286365652229,1.02575
1286365712229,1.02078
1286365772229,1.02536
1286365832229,1.03218
1286365892229,1.02991
1286365952229,1.02049
1286366012229,1.01627
1286366072229,1.01959
1286366132229,1.02582
1286366192229,1.02979
1286366252229,1.02907
1286366312229,1.02863
1286366372229,1.05126
1286366432240,1.02656
1286366492240,1.02443
1286366552240,1.02460
1286366612240,1.02778
1286366672240,1.02270
1286366732240,1.02717
1286366792240,1.02432
1286366852240,1.01968
1286366912240,1.03183
1286366972240,1.02636
1286367032240,1.02404
1286367092240,1.01992
1286367152240,1.02702
1286367212240,1.02398
1286367272240,1.02221
1286367332240,1.02132
1286367392240,1.02253
1286367452240,1.03109
1286367512240,1.02535
1286367572240,1.02267
1286367632240,1.02883
1286367692240,1.01865
1286367752240,1.02767
1286367812240,1.02851
1286367872240,1.02607
1286367932240,1.03146
1286367992240,1.03063
1286368052240,1.03021
1286368112240,1.05474
1286368172240,1.02005
1286368232240,1.03002
1286368292240,1.02918
1286368352240,1.02241
1286368412240,1.03628
1286368472240,1.01691
1286368532240,1.02700
1286368592240,1.02102
1286368652240,1.02869
1286368712240,1.03124
1286368772240,1.02663
1286368832240,1.02282
1286368892240,1.02375
1286368952240,1.03018
1286369012240,1.02703
1286369072240,1.02551
1286369132240,1.01417
1286369192240,1.02656
1286369252240,1.01462
1286369312240,1.02387
1286369372240,1.02426
1286369432240,1.02710
1286369492240,1.03097
1286369552240,1.03046
1286369612240,1.02125
1286369672240,1.02674
1286369732240,1.02891
1286369792240,1.02739
1286369852240,1.02815
1286369912240,1.02903
1286369972240,1.02052
1286370032252,1.03068
1286370092252,1.03016
1286370152252,1.02139
1286370212252,1.02395
1286370272252,1.02976
1286370332252,1.02032
1286370392252,1.01490
1286370452252,1.03298
1286370512252,1.03129
1286370572252,1.03011
1286370632252,1.03377
1286370692252,1.02705
1286370752252,1.02144
1286370812252,1.02036
1286370872252,1.02066
1286370932252,1.02486
1286370992252,1.02801
1286371052252,1.03216
1286371112252,1.02288
1286371172252,1.01678
1286371232252,1.02181
1286371292252,1.02294
1286371352252,1.01737
1286371412252,1.02569
1286371472252,1.02366
1286371532252,1.02191
1286371592252,1.02703
1286371652252,1.02483
1286371712252,1.03502
1286371772252,1.03386
1286371832252,1.02547
1286371892252,1.02455
1286371952252,1.02652
1286372012252,1.02955
1286372072252,1.03241
1286372132252,1.02775
1286372192252,1.03010
1286372252252,1.02540
1286372312252,1.02752
1286372372252,1.02846
1286372432252,1.01538
1286372492252,1.02336
1286372552252,1.02088
1286372612252,1.02677
1286372672252,1.04139
1286372732252,1.03608
1286372792252,1.02148
1286372852252,1.02096
1286372912252,1.03388
1286372972252,1.01752
1286373032252,1.02301
1286373092252,1.02967
1286373152252,1.03343
1286373212252,1.03137
1286373272252,1.03352
1286373332252,1.02747
1286373392252,1.03376
1286373452252,1.02958
1286373512252,1.02750
1286373572252,1.03186
1286373632265,1.02676
1286373692265,1.02805
1286373752265,1.02671
1286373812265,1.03283
1286373872265,1.03447
1286373932265,1.03277
1286373992265,1.02809
1286374052265,1.02753
1286374112265,1.02151
1286374172265,1.01898
1286374232265,1.02950
1286374292265,1.02212
1286374352265,1.02660
1286374412265,1.02607
1286374472265,1.03491
1286374532265,1.02426
1286374592265,1.02939
1286374652265,1.03389
1286374712265,1.03013
1286374772265,1.02661
1286374832265,1.02663
1286374892265,1.03295
1286374952265,1.02154
1286375012265,1.02915
1286375072265,1.03295
1286375132265,1.03353
1286375192265,1.02290
1286375252265,1.02934
1286375312265,1.03658
1286375372265,1.02924
1286375432265,1.02794
1286375492265,1.03039
1286375552265,1.03577
1286375612265,1.04140
1286375672265,1.02217
1286375732265,1.02840
1286375792265,1.02311
1286375852265,1.04066
1286375912265,1.03049
1286375972265,1.03229
1286376032265,1.02901
1286376092265,1.03343
1286376152265,1.03195
1286376212265,1.02139
1286376272265,1.03822
1286376332265,1.02773
1286376392265,1.02883
1286376452265,1.03161
1286376512265,1.02378
1286376572265,1.02966
1286376632265,1.03400
1286376692265,1.02604
1286376752265,1.02324
1286376812265,1.03357
1286376872265,1.03090
1286376932265,1.03317
1286376992265,1.02973
1286377052265,1.03400
1286377112265,1.03420
1286377172265,1.02824
1286377232277,1.03234
1286377292277,1.03181
1286377352277,1.03353
1286377412277,1.03747
1286377472277,1.03197
1286377532277,1.03303
1286377592277,1.03553
1286377652277,1.03465
1286377712277,1.02995
1286377772277,1.03695
1286377832277,1.04310
1286377892277,1.03608
1286377952277,1.03293
1286378012277,1.03229
1286378072277,1.03429
1286378132277,1.03023
1286378192277,1.03766
1286378252277,1.03321
1286378312277,1.03396
1286378372277,1.03020
1286378432277,1.01721
1286378492277,1.03099
1286378552277,1.03677
1286378612277,1.03893
1286378672277,1.04135
1286378732277,1.02914
1286378792277,1.03160
1286378852277,1.03224
1286378912277,1.08074
1286378972277,1.03693
1286379032277,1.03569
1286379092277,1.01716
1286379152277,1.02985
1286379212277,1.04275
1286379272277,1.01964
1286379332277,1.03523
1286379392277,1.02749
1286379452277,1.03210
1286379512277,1.03363
1286379572277,1.02679
1286379632277,1.03792
1286379692277,1.04550
1286379752277,1.03406
1286379812277,1.04041
1286379872277,1.03250
1286379932277,1.04170
1286379992277,1.03432
1286380052277,1.03539
1286380112277,1.02032
1286380172277,1.04074
1286380232277,1.03419
1286380292277,1.03707
1286380352277,1.03463
1286380412277,1.02798
1286380472277,1.03282
1286380532277,1.04085
1286380592277,1.03620
1286380652277,1.04249
1286380712277,1.02938
1286380772277,1.03352
1286380832290,1.03053
1286380892290,1.03534
1286380952290,1.03748
1286381012290,1.03336
1286381072290,1.04022
1286381132290,1.03440
1286381192290,1.04530
1286381252290,1.04312
1286381312290,1.03301
1286381372290,1.04728
1286381432290,1.07143
1286381492290,1.03878
1286381552290,1.03467
1286381612290,1.04168
1286381672290,1.03671
1286381732290,1.03893
1286381792290,1.04335
1286381852290,1.03943
1286381912290,1.04308
1286381972290,1.03839
1286382032290,1.04706
1286382092290,1.04413
1286382152290,1.04648
1286382212290,1.03390
1286382272290,1.03587
1286382332290,1.05896
1286382392290,1.03434
1286382452290,1.04105
1286382512290,1.04751
1286382572290,1.03651
1286382632290,1.05234
1286382692290,1.04345
1286382752290,1.05272
1286382812290,1.05067
1286382872290,1.03938
1286382932290,1.04159
1286382992290,1.03660
1286383052290,1.03855
1286383112290,1.03782
1286383172290,1.03690
1286383232290,1.03852
1286383292290,1.03499
1286383352290,1.04654
1286383412290,1.04555
1286383472290,1.05055
1286383532290,1.04475
1286383592290,1.04302
1286383652290,1.03913
1286383712290,1.05607
1286383772290,1.03140
1286383832290,1.03657
1286383892290,1.03069
1286383952290,1.04751
1286384012290,1.04328
1286384072290,1.04906
1286384132290,1.05927
1286384192290,1.04717
1286384252290,1.03892
1286384312290,1.04807
1286384372290,1.05354
1286384432303,1.04376
1286384492303,1.03656
1286384552303,1.04877
1286384612303,1.04828
1286384672303,1.03758
1286384732303,1.05742
1286384792303,1.04672
1286384852303,1.04238
1286384912303,1.04531
1286384972303,1.04916
1286385032303,1.04941
1286385092303,1.04931
1286385152303,1.05100
1286385212303,1.03980
1286385272303,1.04596
1286385332303,1.04275
1286385392303,1.04667
1286385452303,1.04411
1286385512303,1.04300
1286385572303,1.04276
1286385632303,1.03843
1286385692303,1.05519
1286385752303,1.04584
1286385812303,1.05721
1286385872303,1.04874
1286385932303,1.04127
1286385992303,1.04387
1286386052303,1.04978
1286386112303,1.05578
1286386172303,1.04487
1286386232303,1.03784
1286386292303,1.04120
1286386352303,1.04085
1286386412303,1.04318
1286386472303,1.05079
1286386532303,1.04325
1286386592303,1.04160
1286386652303,1.04607
1286386712303,1.04606
1286386772303,1.04605
1286386832303,1.04924
1286386892303,1.04714
1286386952303,1.05491
1286387012303,1.05126
1286387072303,1.05151
1286387132303,1.05009
1286387192303,1.04730
1286387252303,1.03890
1286387312303,1.05099
1286387372303,1.04402
1286387432303,1.05458
1286387492303,1.05202
1286387552303,1.05003
1286387612303,1.05009
1286387672303,1.04551
1286387732303,1.04413
1286387792303,1.04611
1286387852303,1.04613
1286387912303,1.05103
1286387972303,1.04344
1286388032315,1.04499
1286388092315,1.03879
1286388152315,1.05265
1286388212315,1.04521
1286388272315,1.03938
1286388332315,1.04616
1286388392315,1.04988
1286388452315,1.04049
1286388512315,1.03716
1286388572315,1.04480
1286388632315,1.04631
1286388692316,1.05297
1286388752316,1.04456
1286388812316,1.04560
1286388872316,1.04053
1286388932316,1.04630
1286388992316,1.04321
1286389052315,1.03587
1286389112315,1.04957
1286389172315,1.03411
1286389232315,1.03883
1286389292315,1.04940
1286389352315,1.04288
1286389412315,1.04317
1286389472315,1.04792
1286389532315,1.04912
1286389592315,1.04288
1286389652315,1.04098
1286389712315,1.03945
1286389772315,1.05115
1286389832315,1.04464
1286389892315,1.04582
1286389952315,1.04894
1286390012315,1.04756
1286390072316,1.03891
1286390132316,1.04083
1286390192316,1.03716
1286390252316,1.04172
1286390312316,1.02989
1286390372316,1.04790
1286390432315,1.04086
1286390492315,1.03535
1286390552315,1.03336
1286390612315,1.03666
1286390672315,1.03948
1286390732315,1.04003
1286390792315,1.03470
1286390852315,1.03870
1286390912315,1.04304
1286390972315,1.03707
1286391032315,1.03942
1286391092315,1.04819
1286391152315,1.04000
1286391212315,1.02688
1286391272315,1.04717
1286391332315,1.03710
1286391392316,1.03920
1286391452316,1.04640
1286391512316,1.05093
1286391572316,1.04701
1286391632328,1.02725
1286391692328,1.04839
1286391752328,1.03116
1286391812328,1.04613
1286391872328,1.04097
1286391932328,1.04500
1286391992328,1.04231
1286392052328,1.04210
1286392112328,1.03870
1286392172328,1.03572
1286392232328,1.03272
1286392292328,1.03704
1286392352328,1.04509
1286392412328,1.03777
1286392472328,1.04310
1286392532328,1.03919
1286392592328,1.04658
1286392652328,1.03196
1286392712328,1.03234
1286392772328,1.03036
1286392832328,1.03473
1286392892328,1.03518
1286392952328,1.04392
1286393012328,1.03078
1286393072328,1.03906
1286393132328,1.03156
1286393192328,1.04091
1286393252328,1.03815
1286393312328,1.03720
1286393372328,1.03017
1286393432328,1.03251
1286393492328,1.03682
1286393552328,1.03437
1286393612328,1.03733
1286393672328,1.04207
1286393732328,1.03145
1286393792328,1.03169
1286393852328,1.03899
1286393912328,1.03605
1286393972328,1.02915
1286394032328,1.03728
1286394092328,1.03672
1286394152328,1.04023
1286394212328,1.03065
1286394272328,1.02989
1286394332328,1.03783
1286394392328,1.02532
1286394452328,1.04373
1286394512328,1.03999
1286394572328,1.02782
1286394632328,1.02677
1286394692328,1.04310
1286394752328,1.03146
1286394812328,1.03613
1286394872328,1.03749
1286394932328,1.04289
1286394992328,1.02348
1286395052328,1.03405
1286395112328,1.03698
1286395172328,1.03326
1286395232341,1.03478
1286395292341,1.03187
1286395352341,1.02037
1286395412341,1.03090
1286395472341,1.02583
1286395532341,1.02616
1286395592341,1.02472
1286395652341,1.03251
1286395712341,1.03063
1286395772341,1.01851
1286395832341,1.02690
1286395892341,1.02841
1286395952341,1.02589
1286396012341,1.02743
1286396072341,1.01803
1286396132341,1.02488
1286396192340,1.03689
1286396252341,1.02347
1286396312341,1.02638
1286396372341,1.02752
1286396432341,1.02622
1286396492341,1.03062
1286396552341,1.02225
1286396612341,1.02875
1286396672341,1.02549
1286396732341,1.01708
1286396792341,1.02303
1286396852341,1.03084
1286396912341,1.01331
1286396972341,1.02642
1286397032341,1.02282
1286397092341,1.01905
1286397152341,1.03599
1286397212341,1.03816
1286397272341,1.02270
1286397332341,1.02580
1286397392341,1.01818
1286397452341,1.01582
1286397512341,1.02482
1286397572340,1.02818
1286397632341,1.01404
1286397692341,1.02065
1286397752341,1.01337
1286397812341,1.02786
1286397872341,1.01651
1286397932341,1.02946
1286397992341,1.02772
1286398052341,1.01694
1286398112341,1.01895
1286398172341,1.02404
1286398232341,1.02614
1286398292341,1.03957
1286398352341,1.02864
1286398412341,1.02203
1286398472341,1.01874
1286398532341,1.02840
1286398592341,1.03051
1286398652341,1.02588
1286398712341,1.02869
1286398772341,1.02671
1286398832353,1.03916
1286398892353,1.02749
1286398952353,1.03117
1286399012353,1.02526
1286399072353,1.02216
1286399132353,1.02183
1286399192353,1.02484
1286399252353,1.02608
1286399312353,1.02839
1286399372353,1.03309
1286399432353,1.03100
1286399492353,1.01761
1286399552353,1.02850
1286399612353,1.01921
1286399672353,1.01532
1286399732353,1.02272
1286399792353,1.01600
1286399852353,1.01357
1286399912353,1.01899
1286399972353,1.02924
1286400032353,1.02093
1286400092353,1.02809